Location: Houston
(29.7630°N, 95.3630°W)
Time: 18:52:34
(UTC-05:00)

ISS - All Passes

Search period start: 16 August 2017 00:00
Search period end: 26 August 2017 00:00
Orbit: 401 x 408 km, 51.6° (Epoch: 17 August)

Date Brightness Start Highest point End Pass type
(mag) Time Alt. Az. Time Alt. Az. Time Alt. Az.
16 Aug - 11:12:43 10° S 11:15:32 27° SE 11:18:21 10° ENE daylight
16 Aug - 12:49:34 10° W 12:51:59 19° NW 12:54:25 10° N daylight
16 Aug - 19:21:25 10° NNW 19:24:06 23° NE 19:26:47 10° E daylight
16 Aug - 20:58:00 10° WNW 21:00:27 20° SW 21:02:54 10° S visible
17 Aug - 10:22:03 10° SSE 10:23:27 12° SE 10:24:50 10° E daylight
17 Aug - 11:56:34 10° WSW 11:59:37 37° NW 12:02:42 10° NNE daylight
17 Aug - 18:30:05 10° N 18:31:41 13° NE 18:33:16 10° ENE daylight
17 Aug - 20:05:12 10° NW 20:08:19 46° SW 20:11:27 10° SSE daylight
18 Aug - 11:04:05 10° SW 11:07:21 89° NNW 11:10:38 10° NE daylight
18 Aug - 19:12:53 10° NW 19:16:07 69° NE 19:19:20 10° SE daylight
19 Aug - 10:12:07 10° SSW 10:15:09 36° SE 10:18:12 10° ENE daylight
19 Aug - 11:49:40 10° WNW 11:51:43 15° NW 11:53:45 10° N daylight
19 Aug - 18:20:52 10° NNW 18:23:48 30° NE 18:26:42 10° ESE daylight
19 Aug - 19:58:05 10° W 20:00:02 15° SW 20:01:59 10° SSW daylight
20 Aug - 09:20:53 10° SSE 09:23:01 16° SE 09:25:08 10° E daylight
20 Aug - 10:56:23 10° WSW 10:59:17 29° NW 11:02:11 10° NNE daylight
20 Aug - 17:29:16 10° N 17:31:22 16° NE 17:33:28 10° ENE daylight
20 Aug - 19:04:55 10° WNW 19:07:54 34° SW 19:10:52 10° SSE daylight
21 Aug - 10:03:41 10° SW 10:06:56 65° NW 10:10:11 10° NE daylight
21 Aug - 18:12:25 10° NW 18:15:41 86° SW 18:18:55 10° SE daylight
22 Aug - 09:11:29 10° SSW 09:14:40 50° SE 09:17:51 10° NE daylight
22 Aug - 10:49:48 10° WNW 10:51:20 13° NW 10:52:51 10° N daylight
22 Aug - 17:20:16 10° NNW 17:23:22 39° NE 17:26:25 10° ESE daylight
22 Aug - 18:58:23 10° WSW 18:59:30 11° SW 19:00:37 10° SW daylight
23 Aug - 08:19:54 10° S 08:22:28 21° SE 08:25:01 10° ENE daylight
23 Aug - 09:56:09 10° W 09:58:50 23° NW 10:01:30 10° NNE daylight
23 Aug - 16:28:28 10° N 16:30:56 19° NE 16:33:22 10° E daylight
23 Aug - 18:04:36 10° WNW 18:07:21 25° SW 18:10:05 10° S daylight
24 Aug - 09:03:13 10° WSW 09:06:25 47° NW 09:09:36 10° NNE daylight
24 Aug - 15:37:28 10° NNE 15:38:23 11° NE 15:39:17 10° NE daylight
24 Aug - 17:11:55 10° NW 17:15:07 62° SW 17:18:19 10° SSE daylight
25 Aug - 08:10:49 10° SW 08:14:04 69° SE 08:17:20 10° NE daylight
25 Aug - 09:50:16 10° NW 09:50:51 10° NNW 09:51:25 10° NNW daylight
25 Aug - 16:19:36 10° NNW 16:22:47 52° NE 16:25:58 10° ESE daylight
